Weather in Kokand

Uzbekistan     40°32′20″N   70°56′25″E
temp.,
°C
wind,
m/s
gust,
m/s
humid.,
%
clouds,
%
prec.,
mm/h
press.,
hPa
HPBL,
m
10 may, mon
mon1023:00+25wsw61140100 0.0 1011602
02:00+23sw12425 0.0 1010200
05:00+22sw12515 0.0 1011230
08:00+24w22468 0.0 1011613
11:00+28w2234100 0.0 10091413
14:00+31wsw542757 0.0 10061982
17:00+28wsw8933100 0.0 10061012
20:00+24wsw121743100 0.0 1007739
11 may, tue
tue1123:00+23wsw91648100 0.0 1008711
02:00+22wsw91349100 0.0 1009735
05:00+21w91251100 0.0 1011726
08:00+22wsw81146100 0.8 1013927
11:00+24wsw7935100 0.8 10121235
14:00+28wsw8923100 0.0 10111828
17:00+29wsw1010166 0.0 10101740
20:00+25wsw8122112 0.0 1012874
12 may, wed
wed1223:00+23wsw39274 0.0 1013428
02:00+21w353233 0.0 1012256
05:00+20wsw24346 0.0 1013177
08:00+23wsw35265 0.0 1013623
11:00+27wsw43194 0.0 10121981
14:00+30wsw44150 0.0 10102685
17:00+29wsw66140 0.0 10092156
20:00+26wsw711220 0.0 1010890
13 may, thu
thu1323:00+22ene68375 0.0 1012344
02:00+20e35450 0.0 1011269
05:00+19e34480 0.0 1012257
08:00+21ne23460 0.0 1012516
11:00+26ne33291 0.0 10101420
14:00+29n21190 0.0 10082063
17:00+30nnw22170 0.0 10072109
20:00+27wsw68230 0.0 1008584
14 may, fri
fri1423:00+25sw49260 0.0 1008432
02:00+23wsw512290 0.0 1008409
05:00+21wsw612350 0.0 1009463
08:00+22w811320 0.0 1009689
11:00+26wsw99184 0.0 10081353
14:00+28wsw1213130 0.0 10051268
17:00+28wsw1315180 0.0 10041809
20:00+24wsw1017260 0.0 10072035